www.pogodaiklimat.ru

Погода и климат >> Архив погоды >> Россия >> Калмыкия >> Малые Дербеты


ПОГОДА в Малых Дербетах

  • Прогноз погоды в Малых Дербетах
  • Монитор погоды в Малых Дербетах

АРХИВ ПОГОДЫ в Малых Дербетах

Время (UTC), дата Ветер
(напр.,м/с)
 
Видим.   Явления Облачность Т
(С)
Тd
(С)
f
(%)
Тe
(С)
Тes
(С)
Комфортность P
(гПа)
Po
(гПа)
Тmin
(С)
Tmax
(С)
R
(мм)
R24
(мм)
S
(см)
21 11.08 ЮЗ 1 20 км 4/0
[Ci sp]
+15.2 +5.7 53 +16 +16 1014.2 1013.1
00 12.08 З 2 20 км 10/0
[Ac As]
+16.1 +6.6 53 +16 +16 1014.8 1013.7
03 12.08 З 1 20 км 4/0
[Ac trans]
+15.0 +8.3 64 +16 +16 1015.6 1014.5 +14.4
06 12.08 СЗ 2 20 км 3/0
[Ci fib]
+21.2 +9.1 46 +22 +31 комфорт 1016.0 1014.9
09 12.08 СЗ 5
{10}
20 км пыльный позёмок 3/3 600 м
[Cu hum Ci fib]
+25.0 +6.2 30 +25 +31 комфорт 1015.3 1014.3
12 12.08 З 5
{11}
20 км пыльный позёмок 1/1 600 м
[Cu hum]
+25.8 +4.0 24 +25 +29 комфорт 1015.0 1013.9
15 12.08 СЗ 4
{13}
20 км ясно +24.9 +2.8 24 +24 +24 комфорт 1015.1 1014.1 +26.2
18 12.08 З 2 20 км ясно +17.6 +4.7 42 +18 +18 1016.9 1015.9
21 12.08 З 2 20 км ясно +15.4 +5.0 50 +15 +15 1017.6 1016.5
00 13.08 З 2 н/о н/о +12.0 +5.0 62 +11 +11 1017.9 1016.9
03 13.08 З 1 20 км ясно +12.2 +5.8 65 +12 +13 1018.5 1017.4 +10.6
06 13.08 СЗ 3 20 км 1/0
[Ci fib]
+22.4 +5.4 33 +23 +30 комфорт 1018.5 1017.5
09 13.08 СЗ 4 20 км ясно +25.7 +4.7 26 +25 +35 комфорт 1018.0 1016.9
12 13.08 СЗ 3 20 км 1/1 1000 м
[Cu hum]
+27.8 +5.5 24 +27 +33 жарко 1016.8 1015.7
15 13.08 СЗ 3 20 км 8/0
[Ci fib]
+26.6 +6.7 28 +26 +27 жарко 1016.3 1015.3 +28.1
18 13.08 З 1 20 км 3/0
[Ci fib]
+19.9 +8.6 48 +22 +22 комфорт 1017.5 1016.4
21 13.08 З 1 20 км ясно +16.7 +8.3 58 +18 +18 1017.9 1016.8
00 14.08 З 1 20 км ясно +13.9 +7.8 67 +14 +14 1017.7 1016.6
03 14.08 ЮЗ 1 20 км ясно +14.4 +7.8 65 +15 +16 1018.1 1017.0 +12.1
06 14.08 Ю 1 20 км ясно +25.3 +8.3 34 +26 +36 жарко 1018.3 1017.2
09 14.08 СЗ 2 20 км ясно +29.3 +8.8 28 +29 +44 жарко 1017.1 1016.0
12 14.08 С 1 20 км ясно +30.6 +8.7 26 +30 +40 жарко 1015.4 1014.4
15 14.08 штиль 0 20 км ясно +31.0 +9.0 26 +30 +31 жарко 1014.8 1013.8 +31.8
18 14.08 ЮВ 1 20 км ясно +22.5 +10.8 48 +25 +25 комфорт 1015.2 1014.1
21 14.08 ЮЗ 1 20 км ясно +19.5 +10.8 57 +22 +22 комфорт 1014.9 1013.8
00 15.08 штиль 0 20 км ясно +18.5 +10.6 60 +19 +19 1014.5 1013.4
03 15.08 штиль 0 20 км ясно +18.8 +11.2 61 +19 +20 1014.9 1013.8 +16.8
06 15.08 штиль 0 20 км ясно +30.8 +6.8 22 +29 +41 жарко 1015.0 1014.0
09 15.08 В 3 20 км ясно +33.8 +8.1 21 +32 +45 жарко 1014.0 1013.0
12 15.08 ЮВ 2 20 км ясно +35.8 +9.7 20 +34 +43 очень
жарко
1012.7 1011.7
15 15.08 В 2 20 км ясно +33.8 +10.0 23 +33 +34 жарко 1011.7 1010.7 +36.1
18 15.08 ЮВ 1 20 км ясно +25.3 +10.8 40 +26 +26 жарко 1012.1 1011.0
21 15.08 Ю 1 20 км ясно +23.1 +7.9 38 +24 +24 комфорт 1012.9 1011.8
00 16.08 ЮВ 1 20 км ясно +17.9 +8.5 54 +19 +19 1013.1 1012.0
03 16.08 штиль 0 20 км ясно +17.7 +8.8 56 +18 +19 1013.4 1012.3 +15.8
06 16.08 ЮВ 3 20 км 8/0
[Ci fib]
+26.8 +11.3 38 +28 +34 жарко 1013.3 1012.3
09 16.08 В 6
{11}
20 км пыльный позёмок 10/0
[Ci fib]
+32.2 +8.6 23 +31 +36 жарко 1011.4 1010.4
12 16.08 В 5-11
{13}
20 км пыльный позёмок 6/0
[Ci fib]
+34.6 +5.0 16 +32 +36 жарко 1009.0 1008.0
15 16.08 ЮВ 4
{11}
20 км 1/0
[Ci fib]
+33.0 +4.1 16 +30 +31 жарко 1008.5 1007.5 +34.8
18 16.08 ЮВ 3 20 км 10/0
[Ci fib]
+24.8 +5.1 28 +24 +24 комфорт 1010.1 1009.1
21 16.08 ЮВ 2 20 км 10/0
[Ac und]
+22.8 +7.6 38 +24 +24 комфорт 1010.8 1009.8
00 17.08 штиль 0 20 км 9/0
[Ac und]
+19.5 +10.7 57 +20 +20 1010.8 1009.8
03 17.08 СВ 1 20 км 9/0
[Ac As]
+18.6 +10.6 60 +20 +20 1010.5 1009.4 +16.8
06 17.08 ЮВ 4 20 км 10/0
[Ac trans Cs]
+26.8 +10.3 36 +28 +30 жарко 1010.0 1009.0
09 17.08 ЮВ 5-11
{13}
20 км пыльный позёмок 6/3 1000 м
[Cu med, cong Cs]
+33.9 +6.4 18 +32 +37 жарко 1010.1 1009.1
12 17.08 ЮВ 5-10
{16}
20 км пыльный позёмок 10/0
[Ac trans Ci sp]
+32.9 +8.2 22 +32 +34 жарко 1008.8 1007.8
15 17.08 ЮВ 5
{14}
20 км 10/1 600 м
[Cu med, cong Ac cast Cs]
+30.1 +5.9 22 +29 +29 жарко 1009.1 1008.0 +34.0
18 17.08 ЮВ 1 20 км 5/0
[Ac cast]
+25.0 +13.8 50 +27 +27 жарко 1010.1 1009.0
21 17.08 Ю 1 20 км 9/0
[Ac und]
+23.1 +13.6 55 +26 +26 жарко 1010.4 1009.4
00 18.08 ЮВ 2 20 км 4/0
[Ac cast]
+22.5 +13.9 58 +26 +26 жарко 1011.0 1009.9
03 18.08 штиль 0 20 км 6/0
[Ac trans Ci sp]
+18.0 +14.0 77 +18 +19 1011.2 1010.1 +17.8
06 18.08 ЮВ 2 20 км 4/0
[Ac cast]
+29.4 +9.7 29 +29 +35 жарко 1011.2 1010.2
09 18.08 В 5 20 км пыльный позёмок 3/0
[Ci sp]
+34.1 +4.4 16 +32 +39 жарко 1010.5 1009.5
12 18.08 ЮВ 5-10
{14}
20 км пыльный позёмок 6/0
[Ac cast]
+37.5 +3.6 12 +34 +37 очень
жарко
1009.5 1008.5
15 18.08 ЮВ 6-11
{13}
20 км пыльный позёмок 10/0
[Ac trans]
+34.3 +2.4 13 +31 +31 жарко 1010.3 1009.3 +37.5
18 18.08 В 3
{12}
20 км 8/0
[Ac trans]
+28.9 +4.3 21 +27 +27 жарко 1012.2 1011.1

 

Местоположение метеостанции Малые Дербеты (Калмыкия, Россия): широта 47.93 долгота 44.70 высота над уровнем моря 9 м.

В архиве по умолчанию представлена погода в Малых Дербетах за последнюю неделю. Архивные данные за месяц целиком и за предыдущие месяцы, начиная с января 2011 года, Вы можете получить, выбрав интересующий диапазон дат из раскрывающегося списка и нажав кнопку "Ввод!".


*Определитесь, кто Вы:
робот инопланетянин человек

Внимание! Время в таблицах - всемирное. Для получения местного времени необходимо прибавить поправку, которая равна 3 ч.

Смотрите также архив погоды в соседних городах и на ближайших метеорологических станциях:

Погода в Кетченерах (Калмыкия, Россия) (69 км)
Погода в Волгограде город (Волгоградская область, Россия) (84 км)
Погода в Волгограде (Волгоградская область, Россия) (98 км)
Погода в Черный Яр (Астраханская область, Россия) (107 км)
Погода в Котельниково (Волгоградская область, Россия) (121 км)
Погода в Калаче-на-Дону (Волгоградская область, Россия) (123 км)
Погода в Нижнем Чире (Волгоградская область, Россия) (125 км)
Погода в Юсте (Калмыкия, Россия) (151 км)
Погода в Верхнем Баскунчаке (Астраханская область, Россия) (154 км)
Погода в Иловле (Волгоградская область, Россия) (161 км)

Пояснения к столбцам:

Ветер - указаны скорость ветра в м/с - средняя за 10 мин, порывы в срок и между сроками (в фигурных скобках) и направление, откуда дует ветер: С - северный, СВ - северо-восточный, В - восточный, ЮВ - юго-восточный, Ю - южный, ЮЗ - юго-западный, З - западный, СЗ - северо-западный.
Видимость - горизонтальная дальность видимости в метрах или километрах. При видимости от 1 до 10 км при отсутствии осадков обычно наблюдается дымка, при ухудшении видимости до 1 км и менее - туман. В сухую погоду видимость может ухудшаться дымом, пылью или мглою.
Явления - указаны атмосферные явления, наблюдавшиеся в срок или в последний час перед сроком; фигурными скобками обозначены явления, наблюдавшиеся между сроками (за 1-3 часа до срока); квадратными скобками обозначены град или гололедные отложения с указанием их диаметра в мм.
Облачность - указаны через наклонную черту общая и нижняя облачность в баллах и высота нижней границы облаков в метрах; квадратными скобками обозначены формы облаков: Ci - перистые, Cs - перисто-слоистые, Cc - перисто-кучевые, Ac - высококучевые, As - высокослоистые, Sc - слоисто-кучевые, Ns - слоисто-дождевые, Cu - кучевые, Cb - кучево-дождевые. Подробнее классификацию облаков см. в Атласе облаков (PDF).
T - Температура воздуха - температура, измеренная на высоте 2 м над землей.
Td - Температура точки росы - температура, при понижении до которой содержащийся в воздухе водяной пар достигнет насыщения.
f - Относительная влажность воздуха - влажноcть воздуха, измеренная на высоте 2 м над землей.
Te - Эффективная температура - температура, которую ощущает одетый по сезону человек в тени. Характеристика душности погоды. При расчете учитывается влияние влажности воздуха и скорости ветра на теплоощущения человека.
Tes - Эффективная температура на солнце - температура, которую ощущает человек, с поправкой на солнечный нагрев. Характеристика знойности погоды. Зависит от высоты солнца над горизонтом, облачности и скорости ветра. Ночью, в пасмурную погоду, а также при ветре 12 м/с и более поправка равна нулю.
P - Атмосферное давление - приведенное к уровню моря атмосферное давление.
Po - Атмосферное давление - измеренное на уровне метеостанции атмосферное давление.
Tmin - Минимальная температура - минимум температуры воздуха на высоте 2 м над землей.
Tmax - Максимальная температура - максимум температуры воздуха на высоте 2 м над землей.
R - Количество осадков - Количество выпавших осадков за период времени, мм. При наведении курсора мыши на число - период времени, за который выпало указанное количество осадков.
R24 - Количество осадков - Количество выпавших осадков за 24 часа, мм.
S - Снежный покров - Высота снежного покрова, см. При наведении курсора мыши на число - состояние снежного покрова и степень покрытия местности в баллах.